Orbital Elements at Epoch 2459200.5 (2020-Dec-17.0) TDB
Reference: JPL 12 (heliocentric ecliptic J2000)
Element | Value | Uncertainty (1-sigma) | Units |
e | .1979692839806231 | 3.6973e-05 | |
a | .8604985611119356 | 8.2328e-05 | au |
q | .6901462771022493 | 9.7843e-05 | au |
i | .3563218924229223 | 0.00023843 | deg |
node | 28.91482863724816 | 0.031961 | deg |
peri | 198.2730641079776 | 0.11407 | deg |
M | 48.32324806729059 | 0.050782 | deg |
tp | 2459161.363925087338 (2020-Nov-07.86392509) | 0.046741 | TDB |
period | 291.5571186137863 0.80 | 0.041842 0.0001146 | d yr |
n | 1.234749477946643 | 0.0001772 | deg/d |
Q | 1.030850845121622 | 9.8626e-05 | au |
|
| | Orbit Determination Parameters
Additional Information
|